Regional Weather Roundup
Issued by NWS Sioux Falls, SD

Home | Current Version | Previous Version | Graphics & Text | Print | Product List | Glossary Off
Versions: 1 2 3 4 5 6 7 8 9 10 11 12 13 14 15 16 17 18 19 20 21 22 23 24 25 26 27 28 29 30 31 32 33 34 35 36 37 38 39 40 41 42 43 44 45 46 47 48 49 50

000
ASUS43 KFSD 271702
RWRFSD

WEATHER ROUNDUP FOR SE SOUTH DAKOTA/SW MINNESOTA/NW IOWA
NATIONAL WEATHER SERVICE SIOUX FALLS SD
1200 PM CDT TUE SEP 27 2016

NOTE: "FAIR" INDICATES FEW OR NO CLOUDS BELOW 12,000 FEET WITH NO
SIGNIFICANT WEATHER AND OR OBSTRUCTIONS TO VISIBILITY.


SDZ038>040-050-052>070-271800-
SOUTHEAST SOUTH DAKOTA

CITY           SKY/WX    TMP DP  RH WIND       PRES   REMARKS
CHAMBERLAIN    SUNNY     72  47  40 W8        30.00F
HURON          SUNNY     68  39  34 NW12      29.96F
MADISON        FAIR      63  39  42 NW17G23   29.97F
MITCHELL       SUNNY     70  41  34 NW10      29.99F
SIOUX FALLS    FAIR      68  40  35 W16G22    29.96F
WINNER         FAIR      76  43  30 W10       30.01F
YANKTON        FAIR      70  43  37 W14       29.98F
$$

MNZ071-072-080-081-089-090-097-098-271800-
SOUTHWEST MINNESOTA

CITY           SKY/WX    TMP DP  RH WIND       PRES   REMARKS
FAIRMONT       FAIR      62  34  35 NW17G29   29.90F
JACKSON        FAIR      63  30  29 W14       29.92F
LUVERNE        FAIR      64  34  32 NW15G22   29.96F
MARSHALL       FAIR      63  36  36 NW14      29.91F
MONTEVIDEO     FAIR      63  37  39 NW14G24   29.91F
PIPESTONE      FAIR      64  34  32 NW14      29.94F
REDWOOD FALLS  FAIR      61  34  36 NW20G33   29.89F
TRACY          FAIR      65  34  32 NW14G21   29.92F
WINDOM         FAIR      63  30  29 W14G23    29.91F
WORTHINGTON    FAIR      63  38  39 NW17G25   29.94F
$$

IAZ001>003-012>014-020>022-031-032-NEZ013-014-SDZ071-271800-
NORTHWEST IOWA

CITY           SKY/WX    TMP DP  RH WIND       PRES   REMARKS
CHEROKEE       FAIR      67  40  37 NW14G20   29.96F
DENISON        FAIR      70  39  32 NW14G21   29.96F
ESTHERVILLE    FAIR      65  34  31 NW15      29.91F
LE MARS        FAIR      68  43  40 MISG      29.98F
ORANGE CITY    FAIR      66  43  42 W14       29.96F
SHELDON        FAIR      66  37  34 W16       29.94F
SIOUX CITY     FAIR      71  42  35 NW13G22   29.97F
SPENCER        FAIR      67  39  35 W20G26    29.93F
STORM LAKE     FAIR      68  37  32 NW20G28   29.96F
$$

ABBREVIATIONS USED IN REMARKS
   TC - TEMPERATURE IN CELSIUS
  WCI - WIND CHILL INDEX
   HX - HEAT INDEX
  VSB - VISIBILITY





USA.gov is the U.S. government's official web portal to all federal, state and local government web resources and services.